User: anonymous   Login
Location: Mainz-Finthen
(49.9906°N, 8.1713°E)
Time: 02:31:58
(UTC+00:00)
Language:

NOAA 19 - Orbit

View from above orbital plane
View from above orbital plane
View from above satellite
View from above satellite

Ground track
Ground track

The orbit data is extracted from the following two-line orbital elements,

1 33591U 09005A   21332.53591273  .00000057  00000-0  55894-4 0  9998
2 33591  99.1717 357.2196 0014401  35.5286 324.6841 14.12511126660081
Epoch (UTC): 28 November 2021 12:51:42
Eccentricity: 0.0014401
inclination: 99.1717°
perigee height: 840 km
apogee height: 861 km
right ascension of ascending node: 357.2196°
argument of perigee: 35.5286°
revolutions per day: 14.12511126
mean anomaly at epoch: 324.6841°
orbit number at epoch: 66008

The dashed part of the orbit path shows where the satellite is in the earth's shadow,  

DLR